User: anonymous   Login
Location: Unspecified
(0.0000°N, 0.0000°E)
Time: 16:39:29
(UTC+00:00)
Language:

DSCS III B-5 - Orbit

View from above orbital plane
View from above orbital plane
View from above satellite
View from above satellite

Ground track
Ground track

The orbit data is extracted from the following two-line orbital elements,

1 16117U 85092C   17052.04100606 0.00000000  00000-0  00000-0 0    05
2 16117  15.0813  16.6763 0003440 129.7299 230.3125  0.99324943    04
Epoch (UTC): 21 February 2017 00:59:02
Eccentricity: 0.0003440
inclination: 15.0813°
perigee height: 36039 km
apogee height: 36068 km
right ascension of ascending node: 16.6763°
argument of perigee: 129.7299°
revolutions per day: 0.99324943
mean anomaly at epoch: 230.3125°
orbit number at epoch: 0

The dashed part of the orbit path shows where the satellite is in the earth's shadow,  

DLR